Year,Month,Day,Hour,Minute,Value (Times are PST for temperature in C)
2015,01,12,00,00,4.10
2015,01,12,00,01,4.10
2015,01,12,00,02,4.00
2015,01,12,00,03,4.00
2015,01,12,00,04,4.00
2015,01,12,00,05,4.00
2015,01,12,00,06,4.00
2015,01,12,00,07,4.00
2015,01,12,00,08,4.00
2015,01,12,00,09,4.00
2015,01,12,00,10,4.00
2015,01,12,00,11,4.00
2015,01,12,00,12,4.00
2015,01,12,00,13,4.00
2015,01,12,00,14,4.00
2015,01,12,00,15,4.00
2015,01,12,00,16,4.00
2015,01,12,00,17,4.00
2015,01,12,00,18,4.00
2015,01,12,00,19,4.00
2015,01,12,00,20,4.00
2015,01,12,00,21,4.00
2015,01,12,00,22,4.00
2015,01,12,00,23,4.00
2015,01,12,00,24,4.00
2015,01,12,00,25,4.00
2015,01,12,00,26,4.00
2015,01,12,00,27,4.00
2015,01,12,00,28,4.00
2015,01,12,00,29,4.00
2015,01,12,00,30,4.00
2015,01,12,00,31,4.00
2015,01,12,00,32,4.00
2015,01,12,00,33,4.10
2015,01,12,00,34,4.10
2015,01,12,00,35,4.10
2015,01,12,00,36,4.10
2015,01,12,00,37,4.10
2015,01,12,00,38,4.10
2015,01,12,00,39,4.10
2015,01,12,00,40,4.10
2015,01,12,00,41,4.10
2015,01,12,00,42,4.10
2015,01,12,00,43,4.10
2015,01,12,00,44,4.10
2015,01,12,00,45,4.10
2015,01,12,00,46,4.10
2015,01,12,00,47,4.10
2015,01,12,00,48,4.10
2015,01,12,00,49,4.10
2015,01,12,00,50,4.10
2015,01,12,00,51,4.10
2015,01,12,00,52,4.10
2015,01,12,00,53,4.10
2015,01,12,00,54,4.10
2015,01,12,00,55,4.10
2015,01,12,00,56,4.10
2015,01,12,00,57,4.10
2015,01,12,00,58,4.10
2015,01,12,00,59,4.10
2015,01,12,01,00,4.10
2015,01,12,01,01,4.10
2015,01,12,01,02,4.10
2015,01,12,01,03,4.10
2015,01,12,01,04,4.10
2015,01,12,01,05,4.10
2015,01,12,01,06,4.10
2015,01,12,01,07,4.10
2015,01,12,01,08,4.10
2015,01,12,01,09,4.10
2015,01,12,01,10,4.10
2015,01,12,01,11,4.10
2015,01,12,01,12,4.10
2015,01,12,01,13,4.10
2015,01,12,01,14,4.10
2015,01,12,01,15,4.10
2015,01,12,01,16,4.10
2015,01,12,01,17,4.10
2015,01,12,01,18,4.10
2015,01,12,01,19,4.10
2015,01,12,01,20,4.10
2015,01,12,01,21,4.10
2015,01,12,01,22,4.10
2015,01,12,01,23,4.10
2015,01,12,01,24,4.10
2015,01,12,01,25,4.10
2015,01,12,01,26,4.10
2015,01,12,01,27,4.10
2015,01,12,01,28,4.10
2015,01,12,01,29,4.10
2015,01,12,01,30,4.10
2015,01,12,01,31,4.00
2015,01,12,01,32,4.00
2015,01,12,01,33,4.00
2015,01,12,01,34,4.00
2015,01,12,01,35,4.00
2015,01,12,01,36,4.00
2015,01,12,01,37,4.00
2015,01,12,01,38,4.00
2015,01,12,01,39,4.00
2015,01,12,01,40,4.00
2015,01,12,01,41,4.00
2015,01,12,01,42,4.00
2015,01,12,01,43,4.00
2015,01,12,01,44,4.00
2015,01,12,01,45,4.10
2015,01,12,01,46,4.10
2015,01,12,01,47,4.10
2015,01,12,01,48,4.10
2015,01,12,01,49,4.10
2015,01,12,01,50,4.10
2015,01,12,01,51,4.10
2015,01,12,01,52,4.10
2015,01,12,01,53,4.10
2015,01,12,01,54,4.10
2015,01,12,01,55,4.10
2015,01,12,01,56,4.10
2015,01,12,01,57,4.10
2015,01,12,01,58,4.10
2015,01,12,01,59,4.10
2015,01,12,02,00,4.10
2015,01,12,02,01,4.10
2015,01,12,02,02,4.10
2015,01,12,02,03,4.10
2015,01,12,02,04,4.10
2015,01,12,02,05,4.10
2015,01,12,02,06,4.10
2015,01,12,02,07,4.10
2015,01,12,02,08,4.00
2015,01,12,02,09,4.00
2015,01,12,02,10,4.00
2015,01,12,02,11,4.00
2015,01,12,02,12,4.00
2015,01,12,02,13,4.00
2015,01,12,02,14,4.00
2015,01,12,02,15,4.00
2015,01,12,02,16,4.00
2015,01,12,02,17,4.00
2015,01,12,02,18,4.00
2015,01,12,02,19,4.00
2015,01,12,02,20,4.00
2015,01,12,02,21,4.10
2015,01,12,02,22,4.00
2015,01,12,02,23,4.00
2015,01,12,02,24,4.00
2015,01,12,02,25,4.00
2015,01,12,02,26,4.00
2015,01,12,02,27,4.00
2015,01,12,02,28,4.00
2015,01,12,02,29,4.00
2015,01,12,02,30,4.00
2015,01,12,02,31,4.00
2015,01,12,02,32,4.00
2015,01,12,02,33,4.00
2015,01,12,02,34,4.00
2015,01,12,02,35,4.00
2015,01,12,02,36,4.00
2015,01,12,02,37,4.00
2015,01,12,02,38,4.00
2015,01,12,02,39,4.00
2015,01,12,02,40,4.00
2015,01,12,02,41,4.00
2015,01,12,02,42,4.00
2015,01,12,02,43,4.00
2015,01,12,02,44,4.00
2015,01,12,02,45,4.00
2015,01,12,02,46,4.00
2015,01,12,02,47,4.00
2015,01,12,02,48,4.00
2015,01,12,02,49,4.00
2015,01,12,02,50,4.00
2015,01,12,02,51,4.00
2015,01,12,02,52,4.00
2015,01,12,02,53,4.00
2015,01,12,02,54,4.00
2015,01,12,02,55,4.00
2015,01,12,02,56,4.00
2015,01,12,02,57,4.00
2015,01,12,02,58,4.00
2015,01,12,02,59,4.00
2015,01,12,03,00,4.00
2015,01,12,03,01,4.00
2015,01,12,03,02,4.00
2015,01,12,03,03,4.00
2015,01,12,03,04,4.00
2015,01,12,03,05,4.00
2015,01,12,03,06,4.10
2015,01,12,03,07,4.10
2015,01,12,03,08,4.00
2015,01,12,03,09,4.00
2015,01,12,03,10,4.00
2015,01,12,03,11,4.00
2015,01,12,03,12,4.00
2015,01,12,03,13,4.00
2015,01,12,03,14,4.00
2015,01,12,03,15,4.10
2015,01,12,03,16,4.10
2015,01,12,03,17,4.00
2015,01,12,03,18,4.10
2015,01,12,03,19,4.10
2015,01,12,03,20,4.10
2015,01,12,03,21,4.10
2015,01,12,03,22,4.10
2015,01,12,03,23,4.10
2015,01,12,03,24,4.10
2015,01,12,03,25,4.10
2015,01,12,03,26,4.10
2015,01,12,03,27,4.10
2015,01,12,03,28,4.10
2015,01,12,03,29,4.10
2015,01,12,03,30,4.10
2015,01,12,03,31,4.10
2015,01,12,03,32,4.10
2015,01,12,03,33,4.10
2015,01,12,03,34,4.10
2015,01,12,03,35,4.10
2015,01,12,03,36,4.10
2015,01,12,03,37,4.10
2015,01,12,03,38,4.10
2015,01,12,03,39,4.10
2015,01,12,03,40,4.10
2015,01,12,03,41,4.10
2015,01,12,03,42,4.10
2015,01,12,03,43,4.10
2015,01,12,03,44,4.10
2015,01,12,03,45,4.10
2015,01,12,03,46,4.10
2015,01,12,03,47,4.10
2015,01,12,03,48,4.10
2015,01,12,03,49,4.10
2015,01,12,03,50,4.10
2015,01,12,03,51,4.10
2015,01,12,03,52,4.10
2015,01,12,03,53,4.10
2015,01,12,03,54,4.10
2015,01,12,03,55,4.10
2015,01,12,03,56,4.10
2015,01,12,03,57,4.10
2015,01,12,03,58,4.10
2015,01,12,03,59,4.10
2015,01,12,04,00,4.10
2015,01,12,04,01,4.10
2015,01,12,04,02,4.10
2015,01,12,04,03,4.10
2015,01,12,04,04,4.10
2015,01,12,04,05,4.10
2015,01,12,04,06,4.10
2015,01,12,05,02,4.00
2015,01,12,05,03,4.00
2015,01,12,05,04,4.00
2015,01,12,05,05,4.00
2015,01,12,05,06,4.00
2015,01,12,05,07,4.00
2015,01,12,05,08,4.00
2015,01,12,05,09,4.00
2015,01,12,05,10,4.00
2015,01,12,05,11,4.00
2015,01,12,05,12,4.00
2015,01,12,05,13,4.00
2015,01,12,05,14,4.00
2015,01,12,05,15,4.00
2015,01,12,05,16,4.00
2015,01,12,05,17,4.00
2015,01,12,05,18,4.00
2015,01,12,05,19,4.00
2015,01,12,05,20,4.00
2015,01,12,05,21,4.00
2015,01,12,05,22,4.00
2015,01,12,05,23,4.00
2015,01,12,05,24,4.10
2015,01,12,05,25,4.10
2015,01,12,05,26,4.10
2015,01,12,05,27,4.00
2015,01,12,05,28,4.10
2015,01,12,05,29,4.10
2015,01,12,05,30,4.10
2015,01,12,05,31,4.10
2015,01,12,05,32,4.00
2015,01,12,05,33,4.00
2015,01,12,05,34,4.00
2015,01,12,05,35,4.00
2015,01,12,05,36,4.00
2015,01,12,05,37,4.00
2015,01,12,05,38,4.00
2015,01,12,05,39,4.00
2015,01,12,05,40,4.00
2015,01,12,05,41,4.00
2015,01,12,05,42,4.00
2015,01,12,05,43,4.00
2015,01,12,05,44,4.00
2015,01,12,05,45,4.00
2015,01,12,05,46,4.00
2015,01,12,05,47,4.00
2015,01,12,05,48,4.00
2015,01,12,05,49,4.00
2015,01,12,05,50,4.00
2015,01,12,05,51,4.00
2015,01,12,05,52,4.00
2015,01,12,05,53,4.00
2015,01,12,05,54,4.00
2015,01,12,05,55,4.00
2015,01,12,05,56,4.00
2015,01,12,05,57,4.00
2015,01,12,05,58,4.00
2015,01,12,05,59,4.00
2015,01,12,06,00,4.00
2015,01,12,06,01,4.00
2015,01,12,06,02,4.00
2015,01,12,06,03,4.00
2015,01,12,06,04,4.00
2015,01,12,06,05,4.00
2015,01,12,06,06,4.00
2015,01,12,06,07,4.00
2015,01,12,06,08,4.00
2015,01,12,06,09,4.00
2015,01,12,06,10,4.00
2015,01,12,06,11,4.00
2015,01,12,06,12,4.00
2015,01,12,06,13,4.00
2015,01,12,06,14,4.00
2015,01,12,06,15,4.00
2015,01,12,06,16,4.00
2015,01,12,06,17,4.00
2015,01,12,06,18,4.00
2015,01,12,06,19,4.00
2015,01,12,06,20,4.00
2015,01,12,06,21,4.00
2015,01,12,06,22,4.00
2015,01,12,06,23,4.00
2015,01,12,06,24,4.00
2015,01,12,06,25,4.00
2015,01,12,06,26,4.00
2015,01,12,06,27,4.00
2015,01,12,06,28,4.00
2015,01,12,06,29,4.00
2015,01,12,06,30,4.00
2015,01,12,06,31,4.10
2015,01,12,06,32,4.10
2015,01,12,06,33,4.10
2015,01,12,06,34,4.10
2015,01,12,06,35,4.10
2015,01,12,06,36,4.10
2015,01,12,06,37,4.10
2015,01,12,06,38,4.10
2015,01,12,06,39,4.10
2015,01,12,06,40,4.10
2015,01,12,06,41,4.10
2015,01,12,06,42,4.10
2015,01,12,06,43,4.10
2015,01,12,06,44,4.10
2015,01,12,06,45,4.10
2015,01,12,06,46,4.10
2015,01,12,06,47,4.10
2015,01,12,06,48,4.10
2015,01,12,06,49,4.10
2015,01,12,06,50,4.10
2015,01,12,06,51,4.10
2015,01,12,06,52,4.10
2015,01,12,06,53,4.10
2015,01,12,06,54,4.10
2015,01,12,06,55,4.10
2015,01,12,06,56,4.10
2015,01,12,06,57,4.10
2015,01,12,06,58,4.10
2015,01,12,06,59,4.10
2015,01,12,07,00,4.10
2015,01,12,07,01,4.10
2015,01,12,07,02,4.10
2015,01,12,07,03,4.10
2015,01,12,07,04,4.10
2015,01,12,07,05,4.10
2015,01,12,07,06,4.10
2015,01,12,07,07,4.10
2015,01,12,07,08,4.10
2015,01,12,07,09,4.10
2015,01,12,07,10,4.10
2015,01,12,07,11,4.10
2015,01,12,07,12,4.10
2015,01,12,07,13,4.10
2015,01,12,07,14,4.10
2015,01,12,07,15,4.10
2015,01,12,07,16,4.10
2015,01,12,07,17,4.10
2015,01,12,07,18,4.10
2015,01,12,07,19,4.10
2015,01,12,07,20,4.10
2015,01,12,07,21,4.10
2015,01,12,07,22,4.10
2015,01,12,07,23,4.10
2015,01,12,07,24,4.10
2015,01,12,07,25,4.10
2015,01,12,07,26,4.10
2015,01,12,07,27,4.10
2015,01,12,07,28,4.10
2015,01,12,07,29,4.10
2015,01,12,07,30,4.10
2015,01,12,07,31,4.10
2015,01,12,07,32,4.10
2015,01,12,07,33,4.10
2015,01,12,07,34,4.10
2015,01,12,07,35,4.10
2015,01,12,07,36,4.10
2015,01,12,07,37,4.10
2015,01,12,07,38,4.10
2015,01,12,07,39,4.10
2015,01,12,07,40,4.10
2015,01,12,07,41,4.10
2015,01,12,07,42,4.10
2015,01,12,07,43,4.10
2015,01,12,07,44,4.10
2015,01,12,07,45,4.10
2015,01,12,07,46,4.10
2015,01,12,07,47,4.10
2015,01,12,07,48,4.10
2015,01,12,07,49,4.10
2015,01,12,07,50,4.10
2015,01,12,07,51,4.10
2015,01,12,07,52,4.10
2015,01,12,07,53,4.10
2015,01,12,07,54,4.10
2015,01,12,07,55,4.10
2015,01,12,07,56,4.10
2015,01,12,07,57,4.10
2015,01,12,07,58,4.10
2015,01,12,07,59,4.10
2015,01,12,08,00,4.20
2015,01,12,08,01,4.10
2015,01,12,08,02,4.20
2015,01,12,08,03,4.10
2015,01,12,08,04,4.20
2015,01,12,08,05,4.20
2015,01,12,08,06,4.20
2015,01,12,08,07,4.20
2015,01,12,08,08,4.20
2015,01,12,08,09,4.20
2015,01,12,08,10,4.20
2015,01,12,08,11,4.20
2015,01,12,08,12,4.20
2015,01,12,08,13,4.20
2015,01,12,08,14,4.20
2015,01,12,08,15,4.20
2015,01,12,08,16,4.20
2015,01,12,08,17,4.20
2015,01,12,08,18,4.20
2015,01,12,08,19,4.10
2015,01,12,08,20,4.10
2015,01,12,08,21,4.10
2015,01,12,08,22,4.10
2015,01,12,08,23,4.20
2015,01,12,08,24,4.20
2015,01,12,08,25,4.20
2015,01,12,08,26,4.20
2015,01,12,08,27,4.20
2015,01,12,08,28,4.20
2015,01,12,08,29,4.20
2015,01,12,08,30,4.20
2015,01,12,08,31,4.10
2015,01,12,08,32,4.10
2015,01,12,08,33,4.20
2015,01,12,08,34,4.10
2015,01,12,08,35,4.10
2015,01,12,08,36,4.10
2015,01,12,08,37,4.10
2015,01,12,08,38,4.10
2015,01,12,08,39,4.10
2015,01,12,08,40,4.10
2015,01,12,08,41,4.10
2015,01,12,08,42,4.20
2015,01,12,08,43,4.20
2015,01,12,08,44,4.20
2015,01,12,08,45,4.20
2015,01,12,08,46,4.20
2015,01,12,08,47,4.20
2015,01,12,08,48,4.20
2015,01,12,08,49,4.20
2015,01,12,08,50,4.20
2015,01,12,08,51,4.20
2015,01,12,08,52,4.20
2015,01,12,08,53,4.20
2015,01,12,08,54,4.20
2015,01,12,08,55,4.20
2015,01,12,08,56,4.20
2015,01,12,08,57,4.20
2015,01,12,08,58,4.20
2015,01,12,08,59,4.20
2015,01,12,09,00,4.20
2015,01,12,09,01,4.20
2015,01,12,09,02,4.20
2015,01,12,09,03,4.20
2015,01,12,09,04,4.20
2015,01,12,09,05,4.20
2015,01,12,09,06,4.20
2015,01,12,09,07,4.20
2015,01,12,09,08,4.20
2015,01,12,09,09,4.20
2015,01,12,09,10,4.30
2015,01,12,09,11,4.30
2015,01,12,09,12,4.30
2015,01,12,09,13,4.30
2015,01,12,09,14,4.30
2015,01,12,09,15,4.30
2015,01,12,09,16,4.30
2015,01,12,09,17,4.30
2015,01,12,09,18,4.30
2015,01,12,09,19,4.30
2015,01,12,09,20,4.30
2015,01,12,09,21,4.30
2015,01,12,09,22,4.30
2015,01,12,09,23,4.30
2015,01,12,09,24,4.30
2015,01,12,09,25,4.30
2015,01,12,09,26,4.30
2015,01,12,09,27,4.30
2015,01,12,09,28,4.30
2015,01,12,09,29,4.30
2015,01,12,09,30,4.30
2015,01,12,09,31,4.30
2015,01,12,09,32,4.30
2015,01,12,09,33,4.30
2015,01,12,09,34,4.30
2015,01,12,09,35,4.40
2015,01,12,09,36,4.40
2015,01,12,09,37,4.40
2015,01,12,09,38,4.40
2015,01,12,09,39,4.40
2015,01,12,09,40,4.40
2015,01,12,09,41,4.40
2015,01,12,09,42,4.40
2015,01,12,09,43,4.40
2015,01,12,09,44,4.40
2015,01,12,09,45,4.50
2015,01,12,09,46,4.50
2015,01,12,09,47,4.50
2015,01,12,09,48,4.50
2015,01,12,09,49,4.50
2015,01,12,09,50,4.50
2015,01,12,09,51,4.50
2015,01,12,09,52,4.50
2015,01,12,09,53,4.50
2015,01,12,09,54,4.50
2015,01,12,09,55,4.50
2015,01,12,09,56,4.50
2015,01,12,09,57,4.50
2015,01,12,09,58,4.50
2015,01,12,09,59,4.50
2015,01,12,10,00,4.50
2015,01,12,10,01,4.50
2015,01,12,10,02,4.50
2015,01,12,10,03,4.50
2015,01,12,10,04,4.50
2015,01,12,10,05,4.50
2015,01,12,10,06,4.60
2015,01,12,10,07,4.50
2015,01,12,10,08,4.60
2015,01,12,10,09,4.60
2015,01,12,10,10,4.60
2015,01,12,10,11,4.60
2015,01,12,10,12,4.60
2015,01,12,10,13,4.60
2015,01,12,10,14,4.60
2015,01,12,10,15,4.60
2015,01,12,10,16,4.60
2015,01,12,10,17,4.60
2015,01,12,10,18,4.70
2015,01,12,10,19,4.70
2015,01,12,10,20,4.70
2015,01,12,10,21,4.70
2015,01,12,10,22,4.70
2015,01,12,10,23,4.70
2015,01,12,10,24,4.70
2015,01,12,10,25,4.70
2015,01,12,10,26,4.70
2015,01,12,10,27,4.70
2015,01,12,10,28,4.80
2015,01,12,10,29,4.80
2015,01,12,10,30,4.70
2015,01,12,10,31,4.70
2015,01,12,10,32,4.70
2015,01,12,10,33,4.70
2015,01,12,10,34,4.70
2015,01,12,10,35,4.70
2015,01,12,10,36,4.70
2015,01,12,10,37,4.70
2015,01,12,10,38,4.70
2015,01,12,10,39,4.70
2015,01,12,10,40,4.70
2015,01,12,10,41,4.70
2015,01,12,10,42,4.70
2015,01,12,10,43,4.70
2015,01,12,10,44,4.70
2015,01,12,10,45,4.70
2015,01,12,10,46,4.70
2015,01,12,10,47,4.70
2015,01,12,10,48,4.80
2015,01,12,10,49,4.80
2015,01,12,10,50,4.80
2015,01,12,10,51,4.80
2015,01,12,10,52,4.80
2015,01,12,10,53,4.80
2015,01,12,10,54,4.80
2015,01,12,10,55,4.80
2015,01,12,10,56,4.80
2015,01,12,10,57,4.80
2015,01,12,10,58,4.80
2015,01,12,10,59,4.80
2015,01,12,11,00,4.80
2015,01,12,11,01,4.80
2015,01,12,11,02,4.80
2015,01,12,11,03,4.80
2015,01,12,11,04,4.80
2015,01,12,11,05,4.80
2015,01,12,11,06,4.80
2015,01,12,11,07,4.80
2015,01,12,11,08,4.80
2015,01,12,11,09,4.80
2015,01,12,11,10,4.80
2015,01,12,11,11,4.90
2015,01,12,11,12,4.90
2015,01,12,11,13,4.90
2015,01,12,11,14,4.90
2015,01,12,11,15,4.90
2015,01,12,11,16,4.90
2015,01,12,11,17,4.90
2015,01,12,11,18,4.90
2015,01,12,11,19,4.90
2015,01,12,11,20,4.90
2015,01,12,11,21,4.90
2015,01,12,11,22,5.00
2015,01,12,11,23,5.00
2015,01,12,11,24,5.00
2015,01,12,11,25,5.00
2015,01,12,11,26,5.00
2015,01,12,11,27,5.10
2015,01,12,11,28,5.10
2015,01,12,11,29,5.10
2015,01,12,11,30,5.10
2015,01,12,11,31,5.10
2015,01,12,11,32,5.10
2015,01,12,11,33,5.10
2015,01,12,11,34,5.10
2015,01,12,11,35,5.10
2015,01,12,11,36,5.10
2015,01,12,11,37,5.10
2015,01,12,11,38,5.20
2015,01,12,11,39,5.20
2015,01,12,11,40,5.20
2015,01,12,11,41,5.20
2015,01,12,11,42,5.20
2015,01,12,11,43,5.20
2015,01,12,11,44,5.20
2015,01,12,11,45,5.20
2015,01,12,11,46,5.20
2015,01,12,11,47,5.20
2015,01,12,11,48,5.30
2015,01,12,11,49,5.30
2015,01,12,11,50,5.30
2015,01,12,11,51,5.30
2015,01,12,11,52,5.30
2015,01,12,11,53,5.30
2015,01,12,11,54,5.30
2015,01,12,11,55,5.40
2015,01,12,11,56,5.40
2015,01,12,11,57,5.40
2015,01,12,11,58,5.40
2015,01,12,11,59,5.40
2015,01,12,12,00,5.50
2015,01,12,12,01,5.50
2015,01,12,12,02,5.50
2015,01,12,12,03,5.50
2015,01,12,12,04,5.50
2015,01,12,12,05,5.60
2015,01,12,12,06,5.60
2015,01,12,12,07,5.60
2015,01,12,12,08,5.60
2015,01,12,12,09,5.60
2015,01,12,12,10,5.60
2015,01,12,12,11,5.60
2015,01,12,12,12,5.60
2015,01,12,12,13,5.60
2015,01,12,12,14,5.60
2015,01,12,12,15,5.60
2015,01,12,12,16,5.60
2015,01,12,12,17,5.60
2015,01,12,12,18,5.60
2015,01,12,12,19,5.70
2015,01,12,12,20,5.70
2015,01,12,12,21,5.70
2015,01,12,12,22,5.70
2015,01,12,12,23,5.70
2015,01,12,12,24,5.70
2015,01,12,12,25,5.70
2015,01,12,12,26,5.70
2015,01,12,12,27,5.70
2015,01,12,12,28,5.70
2015,01,12,12,29,5.70
2015,01,12,12,30,5.70
2015,01,12,12,31,5.80
2015,01,12,12,32,5.80
2015,01,12,12,33,5.80
2015,01,12,12,34,5.80
2015,01,12,12,35,5.80
2015,01,12,12,36,5.80
2015,01,12,12,37,5.80
2015,01,12,12,38,5.80
2015,01,12,12,39,5.80
2015,01,12,12,40,5.90
2015,01,12,12,41,5.90
2015,01,12,12,42,5.90
2015,01,12,12,43,5.90
2015,01,12,12,44,5.90
2015,01,12,12,45,6.00
2015,01,12,12,46,6.00
2015,01,12,12,47,6.00
2015,01,12,12,48,6.00
2015,01,12,12,49,6.00
2015,01,12,12,50,6.00
2015,01,12,12,51,6.00
2015,01,12,12,52,6.00
2015,01,12,12,53,6.10
2015,01,12,12,54,6.10
2015,01,12,12,55,6.10
2015,01,12,12,56,6.10
2015,01,12,12,57,6.10
2015,01,12,12,58,6.10
2015,01,12,12,59,6.10
2015,01,12,13,00,6.20
2015,01,12,13,01,6.20
2015,01,12,13,02,6.20
2015,01,12,13,03,6.20
2015,01,12,13,04,6.20
2015,01,12,13,05,6.30
2015,01,12,13,06,6.30
2015,01,12,13,07,6.30
2015,01,12,13,08,6.30
2015,01,12,13,09,6.30
2015,01,12,13,10,6.30
2015,01,12,13,11,6.30
2015,01,12,13,12,6.40
2015,01,12,13,13,6.40
2015,01,12,13,14,6.40
2015,01,12,13,15,6.40
2015,01,12,13,16,6.40
2015,01,12,13,17,6.40
2015,01,12,13,18,6.40
2015,01,12,13,19,6.40
2015,01,12,13,20,6.50
2015,01,12,13,21,6.50
2015,01,12,13,22,6.50
2015,01,12,13,23,6.60
2015,01,12,13,24,6.60
2015,01,12,13,25,6.60
2015,01,12,13,26,6.60
2015,01,12,13,27,6.60
2015,01,12,13,28,6.70
2015,01,12,13,29,6.70
2015,01,12,13,30,6.70
2015,01,12,13,31,6.70
2015,01,12,13,32,6.70
2015,01,12,13,33,6.70
2015,01,12,13,34,6.70
2015,01,12,13,35,6.70
2015,01,12,13,36,6.70
2015,01,12,13,37,6.70
2015,01,12,13,38,6.70
2015,01,12,13,39,6.70
2015,01,12,13,40,6.70
2015,01,12,13,41,6.70
2015,01,12,13,42,6.70
2015,01,12,13,43,6.70
2015,01,12,13,44,6.70
2015,01,12,13,45,6.70
2015,01,12,13,46,6.70
2015,01,12,13,47,6.70
2015,01,12,13,48,6.70
2015,01,12,13,49,6.80
2015,01,12,13,50,6.80
2015,01,12,13,51,6.80
2015,01,12,13,52,6.80
2015,01,12,13,53,6.80
2015,01,12,13,54,6.80
2015,01,12,13,55,6.80
2015,01,12,13,56,6.80
2015,01,12,13,57,6.80
2015,01,12,13,58,6.90
2015,01,12,13,59,6.80
2015,01,12,14,00,6.90
2015,01,12,14,01,6.90
2015,01,12,14,02,6.90
2015,01,12,14,03,6.90
2015,01,12,14,04,6.90
2015,01,12,14,05,6.90
2015,01,12,14,06,6.90
2015,01,12,14,07,6.90
2015,01,12,14,08,6.90
2015,01,12,14,09,6.90
2015,01,12,14,10,6.90
2015,01,12,14,11,7.00
2015,01,12,14,12,7.00
2015,01,12,14,13,7.00
2015,01,12,14,14,7.00
2015,01,12,14,15,7.00
2015,01,12,14,16,7.00
2015,01,12,14,17,7.00
2015,01,12,14,18,7.00
2015,01,12,14,19,7.00
2015,01,12,14,20,6.90
2015,01,12,14,21,6.90
2015,01,12,14,22,6.90
2015,01,12,14,23,6.90
2015,01,12,14,24,6.90
2015,01,12,14,25,6.90
2015,01,12,14,26,6.90
2015,01,12,14,27,6.90
2015,01,12,14,28,6.90
2015,01,12,14,29,6.90
2015,01,12,14,30,6.90
2015,01,12,14,31,6.90
2015,01,12,14,32,6.90
2015,01,12,14,33,7.00
2015,01,12,14,34,7.00
2015,01,12,14,35,7.00
2015,01,12,14,36,7.00
2015,01,12,14,37,7.00
2015,01,12,14,38,7.00
2015,01,12,14,39,7.00
2015,01,12,14,40,7.00
2015,01,12,14,41,7.00
2015,01,12,14,42,7.00
2015,01,12,14,43,7.10
2015,01,12,14,44,7.10
2015,01,12,14,45,7.10
2015,01,12,14,46,7.10
2015,01,12,14,47,7.10
2015,01,12,14,48,7.10
2015,01,12,14,49,7.10
2015,01,12,14,50,7.10
2015,01,12,14,51,7.10
2015,01,12,14,52,7.10
2015,01,12,14,53,7.10
2015,01,12,14,54,7.10
2015,01,12,14,55,7.10
2015,01,12,14,56,7.10
2015,01,12,14,57,7.10
2015,01,12,14,58,7.10
2015,01,12,14,59,7.10
2015,01,12,15,00,7.10
2015,01,12,15,01,7.10
2015,01,12,15,02,7.10
2015,01,12,15,03,7.10
2015,01,12,15,04,7.10
2015,01,12,15,05,7.10
2015,01,12,15,06,7.10
2015,01,12,15,07,7.10
2015,01,12,15,08,7.10
2015,01,12,15,09,7.00
2015,01,12,15,10,7.00
2015,01,12,15,11,7.00
2015,01,12,15,12,7.00
2015,01,12,15,13,7.00
2015,01,12,15,14,6.90
2015,01,12,15,15,6.90
2015,01,12,15,16,6.90
2015,01,12,15,17,6.90
2015,01,12,15,18,6.80
2015,01,12,15,19,6.80
2015,01,12,15,20,6.80
2015,01,12,15,21,6.80
2015,01,12,15,22,6.80
2015,01,12,15,23,6.80
2015,01,12,15,24,6.80
2015,01,12,15,25,6.80
2015,01,12,15,26,6.80
2015,01,12,15,27,6.80
2015,01,12,15,28,6.70
2015,01,12,15,29,6.70
2015,01,12,15,30,6.70
2015,01,12,15,31,6.70
2015,01,12,15,32,6.70
2015,01,12,15,33,6.60
2015,01,12,15,34,6.60
2015,01,12,15,35,6.60
2015,01,12,15,36,6.60
2015,01,12,15,37,6.60
2015,01,12,15,38,6.60
2015,01,12,15,39,6.50
2015,01,12,15,40,6.50
2015,01,12,15,41,6.50
2015,01,12,15,42,6.40
2015,01,12,15,43,6.40
2015,01,12,15,44,6.40
2015,01,12,15,45,6.40
2015,01,12,15,46,6.40
2015,01,12,15,47,6.30
2015,01,12,15,48,6.30
2015,01,12,15,49,6.30
2015,01,12,15,50,6.30
2015,01,12,15,51,6.30
2015,01,12,15,52,6.30
2015,01,12,15,53,6.30
2015,01,12,15,54,6.20
2015,01,12,15,55,6.20
2015,01,12,15,56,6.20
2015,01,12,15,57,6.20
2015,01,12,15,58,6.20
2015,01,12,15,59,6.20
2015,01,12,16,00,6.20
2015,01,12,16,01,6.20
2015,01,12,16,02,6.20
2015,01,12,16,03,6.20
2015,01,12,16,04,6.10
2015,01,12,16,05,6.10
2015,01,12,16,06,6.10
2015,01,12,16,07,6.10
2015,01,12,16,08,6.10
2015,01,12,16,09,6.10
2015,01,12,16,10,6.10
2015,01,12,16,11,6.10
2015,01,12,16,12,6.10
2015,01,12,16,13,6.10
2015,01,12,16,14,6.10
2015,01,12,16,15,6.10
2015,01,12,16,16,6.10
2015,01,12,16,17,6.10
2015,01,12,16,18,6.10
2015,01,12,16,19,6.10
2015,01,12,16,20,6.10
2015,01,12,16,21,6.00
2015,01,12,16,22,6.00
2015,01,12,16,23,6.00
2015,01,12,16,24,6.00
2015,01,12,16,25,6.00
2015,01,12,16,26,6.00
2015,01,12,16,27,5.90
2015,01,12,16,28,5.90
2015,01,12,16,29,5.90
2015,01,12,16,30,5.90
2015,01,12,16,31,5.90
2015,01,12,16,32,5.90
2015,01,12,16,33,5.90
2015,01,12,16,34,5.90
2015,01,12,16,35,5.90
2015,01,12,16,36,5.90
2015,01,12,16,37,5.90
2015,01,12,16,38,5.90
2015,01,12,16,39,5.80
2015,01,12,16,40,5.80
2015,01,12,16,41,5.80
2015,01,12,16,42,5.80
2015,01,12,16,43,5.80
2015,01,12,16,44,5.80
2015,01,12,16,45,5.70
2015,01,12,16,46,5.70
2015,01,12,16,47,5.70
2015,01,12,16,48,5.70
2015,01,12,16,49,5.70
2015,01,12,16,50,5.70
2015,01,12,16,51,5.70
2015,01,12,16,52,5.70
2015,01,12,16,53,5.70
2015,01,12,16,54,5.70
2015,01,12,16,55,5.70
2015,01,12,16,56,5.70
2015,01,12,16,57,5.60
2015,01,12,16,58,5.60
2015,01,12,16,59,5.60
2015,01,12,17,00,5.60
2015,01,12,17,01,5.60
2015,01,12,17,02,5.60
2015,01,12,17,03,5.60
2015,01,12,17,04,5.60
2015,01,12,17,05,5.50
2015,01,12,17,06,5.50
2015,01,12,17,07,5.50
2015,01,12,17,08,5.50
2015,01,12,17,09,5.50
2015,01,12,17,10,5.50
2015,01,12,17,11,5.50
2015,01,12,17,12,5.40
2015,01,12,17,13,5.50
2015,01,12,17,14,5.40
2015,01,12,17,15,5.40
2015,01,12,17,16,5.40
2015,01,12,17,17,5.40
2015,01,12,17,18,5.40
2015,01,12,17,19,5.40
2015,01,12,17,20,5.40
2015,01,12,17,21,5.40
2015,01,12,17,22,5.40
2015,01,12,17,23,5.40
2015,01,12,17,24,5.40
2015,01,12,17,25,5.40
2015,01,12,17,26,5.40
2015,01,12,17,27,5.40
2015,01,12,17,28,5.30
2015,01,12,17,29,5.30
2015,01,12,17,30,5.30
2015,01,12,17,31,5.30
2015,01,12,17,32,5.30
2015,01,12,17,33,5.30
2015,01,12,17,34,5.30
2015,01,12,17,35,5.30
2015,01,12,17,36,5.30
2015,01,12,17,37,5.30
2015,01,12,17,38,5.30
2015,01,12,17,39,5.30
2015,01,12,17,40,5.30
2015,01,12,17,41,5.30
2015,01,12,17,42,5.30
2015,01,12,17,43,5.30
2015,01,12,17,44,5.30
2015,01,12,17,45,5.30
2015,01,12,17,46,5.30
2015,01,12,17,47,5.30
2015,01,12,17,48,5.30
2015,01,12,17,49,5.30
2015,01,12,17,50,5.30
2015,01,12,17,51,5.30
2015,01,12,17,52,5.30
2015,01,12,17,53,5.30
2015,01,12,17,54,5.30
2015,01,12,17,55,5.30
2015,01,12,17,56,5.30
2015,01,12,17,57,5.30
2015,01,12,17,58,5.30
2015,01,12,17,59,5.30
2015,01,12,18,00,5.30
2015,01,12,18,01,5.30
2015,01,12,18,02,5.30
2015,01,12,18,03,5.30
2015,01,12,18,04,5.30
2015,01,12,18,05,5.30
2015,01,12,18,06,5.30
2015,01,12,18,07,5.30
2015,01,12,18,08,5.30
2015,01,12,18,09,5.30
2015,01,12,18,10,5.30
2015,01,12,18,11,5.20
2015,01,12,18,12,5.30
2015,01,12,18,13,5.20
2015,01,12,18,14,5.20
2015,01,12,18,15,5.20
2015,01,12,18,16,5.20
2015,01,12,18,17,5.20
2015,01,12,18,18,5.20
2015,01,12,18,19,5.20
2015,01,12,18,20,5.20
2015,01,12,18,21,5.20
2015,01,12,18,22,5.20
2015,01,12,18,23,5.20
2015,01,12,18,24,5.10
2015,01,12,18,25,5.10
2015,01,12,18,26,5.10
2015,01,12,18,27,5.10
2015,01,12,18,28,5.10
2015,01,12,18,29,5.10
2015,01,12,18,30,5.10
2015,01,12,18,31,5.10
2015,01,12,18,32,5.10
2015,01,12,18,33,5.00
2015,01,12,18,34,5.00
2015,01,12,18,35,4.90
2015,01,12,18,36,4.90
2015,01,12,18,37,4.90
2015,01,12,18,38,4.80
2015,01,12,18,39,4.80
2015,01,12,18,40,4.80
2015,01,12,18,41,4.80
2015,01,12,18,42,4.80
2015,01,12,18,43,4.80
2015,01,12,18,44,4.80
2015,01,12,18,45,4.80
2015,01,12,18,46,4.80
2015,01,12,18,47,4.80
2015,01,12,18,48,4.80
2015,01,12,18,49,4.80
2015,01,12,18,50,4.70
2015,01,12,18,51,4.70
2015,01,12,18,52,4.70
2015,01,12,18,53,4.70
2015,01,12,18,54,4.70
2015,01,12,18,55,4.70
2015,01,12,18,56,4.70
2015,01,12,18,57,4.70
2015,01,12,18,58,4.60
2015,01,12,18,59,4.60
2015,01,12,19,00,4.60
2015,01,12,19,01,4.60